Time,TemperatureF,DewpointF,PressureIn,WindDirection,WindDirectionDegrees,WindSpeedMPH,WindSpeedGustMPH,Humidity,HourlyPrecipIn,Conditions,Clouds,dailyrainin,SoftwareType,DateUTC
2013-03-02 00:02:00,29.0,24.0,30.09,NE,52,2.0,6.0,80,0.00,,,0.02,,2013-03-02 05:02:00,
2013-03-02 00:12:00,29.0,24.0,30.09,NE,52,2.0,6.0,80,0.00,,,0.02,,2013-03-02 05:12:00,
2013-03-02 00:22:00,29.0,24.0,30.09,NNW,329,2.0,5.0,80,0.00,,,0.02,,2013-03-02 05:22:00,
2013-03-02 00:32:00,29.0,23.0,30.09,ENE,61,1.0,7.0,79,0.00,,,0.02,,2013-03-02 05:32:00,
2013-03-02 00:42:00,29.0,23.0,30.09,ENE,61,1.0,7.0,79,0.00,,,0.02,,2013-03-02 05:42:00,
2013-03-02 00:52:00,29.0,23.0,30.09,NE,39,0.0,7.0,79,0.00,,,0.02,,2013-03-02 05:52:00,
2013-03-02 01:01:00,28.0,22.0,30.09,ENE,60,3.0,8.0,79,0.00,,,0.02,,2013-03-02 06:01:00,
2013-03-02 01:11:00,28.0,22.0,30.09,ENE,60,3.0,8.0,79,0.00,,,0.02,,2013-03-02 06:11:00,
2013-03-02 01:21:00,28.0,22.0,30.09,North,11,2.0,9.0,78,0.00,,,0.02,,2013-03-02 06:21:00,
2013-03-02 01:32:00,28.0,22.0,30.09,ENE,74,2.0,7.0,78,0.00,,,0.02,,2013-03-02 06:32:00,
2013-03-02 01:42:00,28.0,22.0,30.09,ENE,74,2.0,7.0,78,0.00,,,0.02,,2013-03-02 06:42:00,
2013-03-02 01:51:00,28.0,22.0,30.09,NNE,26,2.0,7.0,78,0.00,,,0.02,,2013-03-02 06:51:00,
2013-03-02 02:01:00,28.0,22.0,30.09,North,355,3.0,8.0,78,0.00,,,0.02,,2013-03-02 07:01:00,
2013-03-02 02:11:00,28.0,22.0,30.09,North,355,3.0,8.0,78,0.00,,,0.02,,2013-03-02 07:11:00,
2013-03-02 02:21:00,28.0,22.0,30.09,North,355,3.0,8.0,78,0.00,,,0.02,,2013-03-02 07:21:00,
2013-03-02 02:32:00,28.0,22.0,30.10,NNE,30,1.0,5.0,79,0.00,,,0.02,,2013-03-02 07:32:00,
2013-03-02 02:42:00,28.0,22.0,30.10,NNE,30,1.0,5.0,79,0.00,,,0.02,,2013-03-02 07:42:00,
2013-03-02 02:52:00,27.0,21.0,30.09,NNE,28,1.0,6.0,79,0.00,,,0.02,,2013-03-02 07:52:00,
2013-03-02 03:01:00,27.0,21.0,30.09,NNE,19,1.0,5.0,79,0.00,,,0.02,,2013-03-02 08:01:00,
2013-03-02 03:11:00,27.0,21.0,30.09,NNE,19,1.0,5.0,79,0.00,,,0.02,,2013-03-02 08:11:00,
2013-03-02 03:21:00,27.0,21.0,30.09,NNE,30,1.0,6.0,79,0.00,,,0.02,,2013-03-02 08:21:00,
2013-03-02 03:32:00,27.0,21.0,30.09,ENE,59,3.0,6.0,79,0.00,,,0.02,,2013-03-02 08:32:00,
2013-03-02 03:42:00,27.0,21.0,30.09,ENE,59,3.0,6.0,79,0.00,,,0.02,,2013-03-02 08:42:00,
2013-03-02 03:52:00,27.0,21.0,30.09,ENE,57,2.0,8.0,79,0.00,,,0.02,,2013-03-02 08:52:00,
2013-03-02 04:02:00,27.0,21.0,30.08,North,351,1.0,6.0,78,0.00,,,0.02,,2013-03-02 09:02:00,
2013-03-02 04:11:00,27.0,21.0,30.08,North,351,1.0,6.0,78,0.00,,,0.02,,2013-03-02 09:11:00,
2013-03-02 04:21:00,27.0,21.0,30.08,NNE,33,2.0,7.0,78,0.00,,,0.02,,2013-03-02 09:21:00,
2013-03-02 04:32:00,27.0,21.0,30.08,NE,40,2.0,9.0,77,0.00,,,0.02,,2013-03-02 09:32:00,
2013-03-02 04:42:00,27.0,21.0,30.08,NE,40,2.0,9.0,77,0.00,,,0.02,,2013-03-02 09:42:00,
2013-03-02 04:51:00,27.0,21.0,30.08,NNW,337,2.0,6.0,77,0.00,,,0.02,,2013-03-02 09:51:00,
2013-03-02 05:01:00,26.0,20.0,30.08,NNE,18,3.0,8.0,78,0.00,,,0.02,,2013-03-02 10:01:00,
2013-03-02 05:16:00,26.0,20.0,30.08,NNE,18,3.0,8.0,78,0.00,,,0.02,,2013-03-02 10:16:00,
2013-03-02 05:22:00,26.0,20.0,30.08,NNE,22,1.0,8.0,78,0.00,,,0.02,,2013-03-02 10:22:00,
2013-03-02 05:32:00,26.0,20.0,30.09,NE,40,2.0,6.0,78,0.00,,,0.02,,2013-03-02 10:32:00,
2013-03-02 05:42:00,26.0,20.0,30.09,NE,40,2.0,6.0,78,0.00,,,0.02,,2013-03-02 10:42:00,
2013-03-02 05:52:00,26.0,20.0,30.09,NE,40,2.0,6.0,78,0.00,,,0.02,,2013-03-02 10:52:00,
2013-03-02 06:01:00,25.0,19.0,30.09,North,355,3.0,6.0,78,0.00,,,0.02,,2013-03-02 11:01:00,
2013-03-02 06:11:00,25.0,19.0,30.09,North,355,3.0,6.0,78,0.00,,,0.02,,2013-03-02 11:11:00,
2013-03-02 06:21:00,25.0,19.0,30.09,NNE,12,2.0,6.0,79,0.00,,,0.02,,2013-03-02 11:21:00,
2013-03-02 06:32:00,25.0,19.0,30.09,NNE,31,2.0,6.0,78,0.00,,,0.02,,2013-03-02 11:32:00,
2013-03-02 06:42:00,25.0,19.0,30.09,NNE,31,2.0,6.0,78,0.00,,,0.02,,2013-03-02 11:42:00,
2013-03-02 06:52:00,25.0,19.0,30.09,NNE,14,2.0,5.0,78,0.00,,,0.02,,2013-03-02 11:52:00,
2013-03-02 07:02:00,25.0,19.0,30.09,NNW,348,1.0,7.0,79,0.00,,,0.02,,2013-03-02 12:02:00,
2013-03-02 07:11:00,25.0,19.0,30.09,NNW,348,1.0,7.0,79,0.00,,,0.02,,2013-03-02 12:11:00,
2013-03-02 07:21:00,25.0,19.0,30.09,NNW,335,3.0,6.0,79,0.00,,,0.02,,2013-03-02 12:21:00,
2013-03-02 07:33:00,25.0,19.0,30.09,NNE,32,2.0,7.0,76,0.00,,,0.02,,2013-03-02 12:33:00,
2013-03-02 07:43:00,25.0,19.0,30.09,NNE,32,2.0,7.0,76,0.00,,,0.02,,2013-03-02 12:43:00,
2013-03-02 07:53:00,25.0,18.0,30.09,ENE,60,2.0,7.0,73,0.00,,,0.02,,2013-03-02 12:53:00,
2013-03-02 08:01:00,25.0,18.0,30.10,ENE,62,3.0,6.0,75,0.00,,,0.02,,2013-03-02 13:01:00,
2013-03-02 08:11:00,25.0,18.0,30.10,ENE,62,3.0,6.0,75,0.00,,,0.02,,2013-03-02 13:11:00,
2013-03-02 08:22:00,25.0,19.0,30.11,NNW,342,2.0,6.0,76,0.00,,,0.02,,2013-03-02 13:22:00,
2013-03-02 08:32:00,25.0,19.0,30.11,NNE,17,2.0,5.0,76,0.00,,,0.02,,2013-03-02 13:32:00,
2013-03-02 08:42:00,25.0,19.0,30.11,NNE,17,2.0,5.0,76,0.00,,,0.02,,2013-03-02 13:42:00,
2013-03-02 08:52:00,25.0,18.0,30.11,NNE,30,2.0,5.0,75,0.00,,,0.02,,2013-03-02 13:52:00,
2013-03-02 09:01:00,26.0,19.0,30.11,NE,46,2.0,5.0,75,0.00,,,0.02,,2013-03-02 14:01:00,
2013-03-02 09:11:00,26.0,19.0,30.11,NE,46,2.0,5.0,75,0.00,,,0.02,,2013-03-02 14:11:00,
2013-03-02 09:21:00,26.0,19.0,30.12,NNW,342,2.0,6.0,76,0.00,,,0.02,,2013-03-02 14:21:00,
2013-03-02 09:32:00,26.0,19.0,30.12,North,5,3.0,6.0,74,0.00,,,0.02,,2013-03-02 14:32:00,
2013-03-02 09:42:00,26.0,19.0,30.12,North,5,3.0,6.0,74,0.00,,,0.02,,2013-03-02 14:42:00,
2013-03-02 09:52:00,26.0,19.0,30.12,NNW,348,1.0,6.0,75,0.00,,,0.02,,2013-03-02 14:52:00,
2013-03-02 10:02:00,26.0,19.0,30.12,North,5,3.0,6.0,75,0.00,,,0.02,,2013-03-02 15:02:00,
2013-03-02 10:11:00,26.0,19.0,30.12,North,5,3.0,6.0,75,0.00,,,0.02,,2013-03-02 15:11:00,
2013-03-02 10:21:00,26.0,19.0,30.12,NNE,22,2.0,5.0,75,0.00,,,0.02,,2013-03-02 15:21:00,
2013-03-02 10:32:00,27.0,20.0,30.12,NNE,26,2.0,6.0,76,0.00,,,0.02,,2013-03-02 15:32:00,
2013-03-02 10:42:00,27.0,20.0,30.12,NNE,26,2.0,6.0,76,0.00,,,0.02,,2013-03-02 15:42:00,
2013-03-02 10:52:00,27.0,19.0,30.12,NNW,339,3.0,10.0,72,0.00,,,0.02,,2013-03-02 15:52:00,
2013-03-02 11:01:00,27.0,18.0,30.12,NNW,338,4.0,10.0,69,0.00,,,0.02,,2013-03-02 16:01:00,
2013-03-02 11:11:00,27.0,18.0,30.12,NNW,338,4.0,10.0,69,0.00,,,0.02,,2013-03-02 16:11:00,
2013-03-02 11:21:00,27.0,19.0,30.12,NE,38,3.0,9.0,70,0.00,,,0.02,,2013-03-02 16:21:00,
2013-03-02 11:32:00,27.0,19.0,30.13,NNW,348,3.0,7.0,71,0.00,,,0.02,,2013-03-02 16:32:00,
2013-03-02 11:42:00,27.0,19.0,30.13,NNW,348,3.0,7.0,71,0.00,,,0.02,,2013-03-02 16:42:00,
2013-03-02 11:51:00,27.0,19.0,30.13,NW,325,3.0,8.0,72,0.00,,,0.02,,2013-03-02 16:51:00,
2013-03-02 12:01:00,27.0,19.0,30.13,North,5,3.0,8.0,71,0.00,,,0.02,,2013-03-02 17:01:00,
2013-03-02 12:11:00,27.0,19.0,30.13,North,5,3.0,8.0,71,0.00,,,0.02,,2013-03-02 17:11:00,
2013-03-02 12:21:00,27.0,19.0,30.13,NE,34,3.0,11.0,71,0.00,,,0.02,,2013-03-02 17:21:00,
2013-03-02 12:32:00,28.0,19.0,30.12,North,355,4.0,8.0,68,0.00,,,0.02,,2013-03-02 17:32:00,
2013-03-02 12:42:00,28.0,19.0,30.12,North,355,4.0,8.0,68,0.00,,,0.02,,2013-03-02 17:42:00,
2013-03-02 12:52:00,28.0,19.0,30.12,North,5,3.0,7.0,68,0.00,,,0.02,,2013-03-02 17:52:00,
2013-03-02 13:02:00,28.0,19.0,30.12,NNE,28,3.0,6.0,69,0.00,,,0.02,,2013-03-02 18:02:00,
2013-03-02 13:11:00,28.0,19.0,30.12,NNE,28,3.0,6.0,69,0.00,,,0.02,,2013-03-02 18:11:00,
2013-03-02 13:22:00,28.0,20.0,30.12,NW,320,3.0,7.0,70,0.00,,,0.02,,2013-03-02 18:22:00,
2013-03-02 13:32:00,28.0,20.0,30.11,WNW,294,2.0,7.0,70,0.00,,,0.01,,2013-03-02 18:32:00,
2013-03-02 13:42:00,28.0,20.0,30.11,WNW,294,2.0,7.0,70,0.00,,,0.01,,2013-03-02 18:42:00,
2013-03-02 13:52:00,28.0,20.0,30.11,West,259,3.0,7.0,70,0.00,,,0.01,,2013-03-02 18:52:00,
2013-03-02 14:01:00,28.0,19.0,30.11,North,5,4.0,8.0,69,0.00,,,0.01,,2013-03-02 19:01:00,
2013-03-02 14:11:00,28.0,19.0,30.11,North,5,4.0,8.0,69,0.00,,,0.01,,2013-03-02 19:11:00,
2013-03-02 14:21:00,28.0,19.0,30.10,NW,325,4.0,8.0,68,0.00,,,0.01,,2013-03-02 19:21:00,
2013-03-02 14:32:00,29.0,20.0,30.10,NNW,327,3.0,7.0,68,0.00,,,0.00,,2013-03-02 19:32:00,
2013-03-02 14:42:00,29.0,20.0,30.10,NNW,327,3.0,7.0,68,0.00,,,0.00,,2013-03-02 19:42:00,
2013-03-02 14:52:00,29.0,19.0,30.10,NNW,346,5.0,9.0,67,0.00,,,0.00,,2013-03-02 19:52:00,
2013-03-02 15:01:00,29.0,20.0,30.10,NW,321,2.0,8.0,70,0.00,,,0.00,,2013-03-02 20:01:00,
2013-03-02 15:11:00,29.0,20.0,30.10,NW,321,2.0,8.0,70,0.00,,,0.00,,2013-03-02 20:11:00,
2013-03-02 15:22:00,28.0,20.0,30.10,WNW,298,3.0,7.0,71,0.00,,,0.00,,2013-03-02 20:22:00,
2013-03-02 15:32:00,29.0,21.0,30.09,NW,312,3.0,6.0,71,0.00,,,0.00,,2013-03-02 20:32:00,
2013-03-02 15:42:00,29.0,21.0,30.09,NW,312,3.0,6.0,71,0.00,,,0.00,,2013-03-02 20:42:00,
2013-03-02 15:52:00,29.0,21.0,30.09,NW,307,2.0,7.0,71,0.00,,,0.00,,2013-03-02 20:52:00,
2013-03-02 16:02:00,29.0,20.0,30.09,WNW,298,4.0,8.0,70,0.00,,,0.00,,2013-03-02 21:02:00,
2013-03-02 16:11:00,29.0,20.0,30.09,WNW,298,4.0,8.0,70,0.00,,,0.00,,2013-03-02 21:11:00,
2013-03-02 16:22:00,29.0,20.0,30.09,NW,321,4.0,9.0,69,0.00,,,0.00,,2013-03-02 21:22:00,
2013-03-02 16:32:00,29.0,19.0,30.09,WNW,289,3.0,8.0,67,0.00,,,0.00,,2013-03-02 21:32:00,
2013-03-02 16:42:00,29.0,19.0,30.09,WNW,289,3.0,8.0,67,0.00,,,0.00,,2013-03-02 21:42:00,
2013-03-02 16:52:00,29.0,20.0,30.10,NNW,345,3.0,10.0,68,0.00,,,0.00,,2013-03-02 21:52:00,
2013-03-02 17:02:00,29.0,19.0,30.09,NNW,329,5.0,10.0,66,0.00,,,0.00,,2013-03-02 22:02:00,
2013-03-02 17:11:00,29.0,19.0,30.09,NNW,329,5.0,10.0,66,0.00,,,0.00,,2013-03-02 22:11:00,
2013-03-02 17:22:00,29.0,19.0,30.10,NW,320,3.0,11.0,66,0.00,,,0.00,,2013-03-02 22:22:00,
2013-03-02 17:32:00,30.0,19.0,30.10,NW,315,3.0,7.0,64,0.00,,,0.00,,2013-03-02 22:32:00,
2013-03-02 17:42:00,30.0,19.0,30.10,NW,315,3.0,7.0,64,0.00,,,0.00,,2013-03-02 22:42:00,
2013-03-02 17:51:00,30.0,20.0,30.10,NNW,342,3.0,9.0,65,0.00,,,0.00,,2013-03-02 22:51:00,
2013-03-02 18:01:00,30.0,21.0,30.10,NW,310,3.0,9.0,68,0.00,,,0.00,,2013-03-02 23:01:00,
2013-03-02 18:11:00,30.0,21.0,30.10,NW,306,3.0,7.0,70,0.00,,,0.00,,2013-03-02 23:11:00,
2013-03-02 18:21:00,30.0,21.0,30.10,NW,306,3.0,7.0,70,0.00,,,0.00,,2013-03-02 23:21:00,
2013-03-02 18:32:00,29.0,22.0,30.10,WNW,298,5.0,9.0,76,0.00,,,0.00,,2013-03-02 23:32:00,
2013-03-02 18:42:00,29.0,22.0,30.10,WNW,298,5.0,9.0,76,0.00,,,0.00,,2013-03-02 23:42:00,
2013-03-02 18:52:00,29.0,23.0,30.11,WNW,301,4.0,8.0,78,0.00,,,0.00,,2013-03-02 23:52:00,
2013-03-02 19:02:00,29.0,23.0,30.11,WNW,300,3.0,11.0,79,0.00,,,0.00,,2013-03-03 00:02:00,
2013-03-02 19:11:00,29.0,23.0,30.11,WNW,300,3.0,11.0,79,0.00,,,0.00,,2013-03-03 00:11:00,
2013-03-02 19:22:00,29.0,23.0,30.11,NNW,348,3.0,9.0,79,0.00,,,0.00,,2013-03-03 00:22:00,
2013-03-02 19:32:00,29.0,23.0,30.11,NW,308,3.0,10.0,78,0.00,,,0.00,,2013-03-03 00:32:00,
2013-03-02 19:42:00,29.0,23.0,30.11,NW,308,3.0,10.0,78,0.00,,,0.00,,2013-03-03 00:42:00,
2013-03-02 19:52:00,29.0,23.0,30.12,WNW,288,4.0,8.0,78,0.00,,,0.00,,2013-03-03 00:52:00,
2013-03-02 20:01:00,29.0,23.0,30.11,NNW,331,2.0,10.0,78,0.00,,,0.00,,2013-03-03 01:01:00,
2013-03-02 20:11:00,29.0,23.0,30.11,NNW,331,2.0,10.0,78,0.00,,,0.00,,2013-03-03 01:11:00,
2013-03-02 20:21:00,29.0,23.0,30.11,NNW,344,4.0,11.0,78,0.00,,,0.00,,2013-03-03 01:21:00,
2013-03-02 20:32:00,28.0,22.0,30.11,WNW,292,6.0,10.0,79,0.00,,,0.00,,2013-03-03 01:32:00,
2013-03-02 20:42:00,28.0,22.0,30.11,WNW,292,6.0,10.0,79,0.00,,,0.00,,2013-03-03 01:42:00,
2013-03-02 20:52:00,28.0,22.0,30.11,WNW,302,4.0,10.0,79,0.00,,,0.00,,2013-03-03 01:52:00,
2013-03-02 21:01:00,28.0,23.0,30.11,WNW,293,3.0,9.0,80,0.00,,,0.00,,2013-03-03 02:01:00,
2013-03-02 21:11:00,28.0,23.0,30.11,WNW,293,3.0,9.0,80,0.00,,,0.00,,2013-03-03 02:11:00,
2013-03-02 21:21:00,28.0,23.0,30.12,West,274,4.0,12.0,80,0.00,,,0.00,,2013-03-03 02:21:00,
2013-03-02 21:32:00,28.0,23.0,30.12,NW,322,5.0,8.0,80,0.00,,,0.00,,2013-03-03 02:32:00,
2013-03-02 21:42:00,28.0,23.0,30.12,NW,322,5.0,8.0,80,0.00,,,0.00,,2013-03-03 02:42:00,
2013-03-02 21:52:00,28.0,23.0,30.12,NNW,338,3.0,9.0,80,0.00,,,0.00,,2013-03-03 02:52:00,
2013-03-02 22:01:00,28.0,23.0,30.12,NW,323,5.0,12.0,81,0.00,,,0.00,,2013-03-03 03:01:00,
2013-03-02 22:11:00,28.0,23.0,30.12,NW,323,5.0,12.0,81,0.00,,,0.00,,2013-03-03 03:11:00,
2013-03-02 22:21:00,28.0,23.0,30.12,NNW,328,3.0,10.0,82,0.00,,,0.00,,2013-03-03 03:21:00,
2013-03-02 22:31:00,28.0,24.0,30.12,WNW,290,3.0,9.0,83,0.00,,,0.00,,2013-03-03 03:31:00,
2013-03-02 22:42:00,28.0,24.0,30.12,WNW,290,3.0,9.0,83,0.00,,,0.00,,2013-03-03 03:42:00,
2013-03-02 22:51:00,28.0,24.0,30.12,NW,313,2.0,8.0,83,0.00,,,0.00,,2013-03-03 03:51:00,
2013-03-02 23:01:00,28.0,24.0,30.12,NW,309,3.0,7.0,83,0.00,,,0.00,,2013-03-03 04:01:00,
2013-03-02 23:11:00,28.0,24.0,30.12,NW,309,3.0,7.0,83,0.00,,,0.00,,2013-03-03 04:11:00,
2013-03-02 23:21:00,27.0,23.0,30.12,WNW,301,2.0,11.0,83,0.00,,,0.00,,2013-03-03 04:21:00,
2013-03-02 23:32:00,27.0,23.0,30.12,WNW,293,5.0,13.0,83,0.00,,,0.00,,2013-03-03 04:32:00,
2013-03-02 23:42:00,27.0,23.0,30.12,WNW,293,5.0,13.0,83,0.00,,,0.00,,2013-03-03 04:42:00,
2013-03-02 23:51:00,27.0,23.0,30.12,West,279,5.0,9.0,84,0.00,,,0.00,,2013-03-03 04:51:00,